,,,PA_Meas_PMT16A,,PR_Meas_QMR101_102,,RH_Meas_QMH101,,SR_Meas_QMS101,,TA_Meas_QMH101,,GenWind,,GenWind,
date,time,status,PA,status,PR,status,RH,status,SR,status,TA,status,DirAvg,status,SpdAvg,
2008-12-29, 00:00:04,VALID,1008.09,VALID,0,VALID,92.7292,VALID,0,VALID,24.842,VALID,165,VALID,0,
2008-12-29, 00:01:04,VALID,1008.09,VALID,0,VALID,92.6605,VALID,0,VALID,24.8225,VALID,165,VALID,0,
2008-12-29, 00:02:04,VALID,1008.1,VALID,0,VALID,92.5919,VALID,0,VALID,24.8225,VALID,165,VALID,0,
2008-12-29, 00:03:04,VALID,1008.09,VALID,0,VALID,92.6071,VALID,0.105969,VALID,24.7835,VALID,165,VALID,0,
2008-12-29, 00:04:04,VALID,1008.08,VALID,0,VALID,92.6529,VALID,0,VALID,24.764,VALID,131,VALID,0,
2008-12-29, 00:05:04,VALID,1008.1,VALID,0,VALID,92.6605,VALID,0.105969,VALID,24.725,VALID,53,VALID,0,
2008-12-29, 00:06:04,VALID,1008.1,VALID,0,VALID,92.7063,VALID,0.105969,VALID,24.686,VALID,45,VALID,0,
2008-12-29, 00:07:04,VALID,1008.12,VALID,0,VALID,92.7749,VALID,0,VALID,24.6666,VALID,30,VALID,0,
2008-12-29, 00:08:04,VALID,1008.14,VALID,0,VALID,92.8969,VALID,0.105969,VALID,24.6471,VALID,30,VALID,0,
2008-12-29, 00:09:04,VALID,1008.15,VALID,0,VALID,92.9961,VALID,0,VALID,24.6471,VALID,30,VALID,0,
2008-12-29, 00:10:04,VALID,1008.13,VALID,0,VALID,93.0342,VALID,0.105969,VALID,24.6062,VALID,30,VALID,0,
2008-12-29, 00:11:04,VALID,1008.13,VALID,0,VALID,93.0266,VALID,0.105969,VALID,24.6081,VALID,30,VALID,0,
2008-12-29, 00:12:04,VALID,1008.13,VALID,0,VALID,93.0266,VALID,0,VALID,24.5886,VALID,30,VALID,0,
2008-12-29, 00:13:04,VALID,1008.08,VALID,0,VALID,93.0571,VALID,0,VALID,24.5691,VALID,41,VALID,0.416016,
2008-12-29, 00:14:04,VALID,1008.07,VALID,0,VALID,93.141,VALID,0.105969,VALID,24.5886,VALID,53,VALID,0.698438,
2008-12-29, 00:15:04,VALID,1008.04,VALID,0,VALID,93.1715,VALID,0.105969,VALID,24.5496,VALID,47,VALID,0.889453,
2008-12-29, 00:16:04,VALID,1008.02,VALID,0,VALID,93.1638,VALID,0.105969,VALID,24.5301,VALID,54,VALID,0.730469,
2008-12-29, 00:17:04,VALID,1008.03,VALID,0,VALID,93.2172,VALID,0.105969,VALID,24.5301,VALID,47,VALID,0.877734,
2008-12-29, 00:18:04,VALID,1008.03,VALID,0,VALID,93.2782,VALID,0.105969,VALID,24.5515,VALID,18,VALID,0.421484,
2008-12-29, 00:19:04,VALID,1008.03,VALID,0,VALID,93.324,VALID,0.105969,VALID,24.5301,VALID,36,VALID,0.432813,
2008-12-29, 00:20:04,VALID,1008.02,VALID,0,VALID,93.3011,VALID,0.105969,VALID,24.5106,VALID,36,VALID,0.144531,
2008-12-29, 00:21:04,VALID,1008.02,VALID,0,VALID,93.3087,VALID,0.105969,VALID,24.4717,VALID,36,VALID,0.428516,
2008-12-29, 00:22:04,VALID,1008.01,VALID,0,VALID,93.3621,VALID,0,VALID,24.4717,VALID,23,VALID,0.413672,
2008-12-29, 00:23:04,VALID,1008.01,VALID,0,VALID,93.4079,VALID,0.105969,VALID,24.4717,VALID,36,VALID,0.193359,
2008-12-29, 00:24:04,VALID,1008,VALID,0,VALID,93.4307,VALID,0.105969,VALID,24.4522,VALID,38,VALID,0.430078,
2008-12-29, 00:25:04,VALID,1007.99,VALID,0,VALID,93.4841,VALID,0,VALID,24.454,VALID,38,VALID,0.173047,
2008-12-29, 00:26:04,VALID,1007.96,VALID,0,VALID,93.5299,VALID,0,VALID,24.4132,VALID,38,VALID,0,
2008-12-29, 00:27:04,VALID,1007.95,VALID,0,VALID,93.5527,VALID,0,VALID,24.4132,VALID,38,VALID,0,
2008-12-29, 00:28:04,VALID,1007.91,VALID,0,VALID,93.568,VALID,0.105969,VALID,24.4132,VALID,38,VALID,0,
2008-12-29, 00:29:04,VALID,1007.91,VALID,0,VALID,93.6366,VALID,0,VALID,24.4132,VALID,38,VALID,0,
2008-12-29, 00:30:04,VALID,1007.9,VALID,0,VALID,93.6824,VALID,0,VALID,24.4132,VALID,38,VALID,0,
2008-12-29, 00:31:04,VALID,1007.89,VALID,0,VALID,93.7129,VALID,0,VALID,24.4132,VALID,38,VALID,0,
2008-12-29, 00:32:04,VALID,1007.89,VALID,0,VALID,93.7358,VALID,0,VALID,24.4132,VALID,38,VALID,0,
2008-12-29, 00:33:04,VALID,1007.83,VALID,0,VALID,93.751,VALID,0,VALID,24.4132,VALID,38,VALID,0,
2008-12-29, 00:34:04,VALID,1007.78,VALID,0,VALID,93.7968,VALID,0,VALID,24.4345,VALID,38,VALID,0,
2008-12-29, 00:35:04,VALID,1007.76,VALID,0,VALID,93.8425,VALID,0.105969,VALID,24.454,VALID,38,VALID,0,
2008-12-29, 00:36:04,VALID,1007.75,VALID,0,VALID,93.8654,VALID,0.105969,VALID,24.4522,VALID,38,VALID,0,
2008-12-29, 00:37:04,VALID,1007.76,VALID,0,VALID,93.873,VALID,0,VALID,24.4522,VALID,38,VALID,0.148047,
2008-12-29, 00:38:04,VALID,1007.69,VALID,0,VALID,93.8654,VALID,0,VALID,24.4735,VALID,38,VALID,0,
2008-12-29, 00:39:04,VALID,1007.69,VALID,0,VALID,93.8273,VALID,0,VALID,24.4717,VALID,38,VALID,0,
2008-12-29, 00:40:04,VALID,1007.61,VALID,0,VALID,93.7891,VALID,0,VALID,24.4911,VALID,38,VALID,0,
2008-12-29, 00:41:04,VALID,1007.56,VALID,0,VALID,93.7129,VALID,0,VALID,24.4911,VALID,38,VALID,0,
2008-12-29, 00:42:04,VALID,1007.56,VALID,0,VALID,93.6519,VALID,0.105969,VALID,24.5106,VALID,38,VALID,0,
2008-12-29, 00:43:04,VALID,1007.53,VALID,0,VALID,93.6442,VALID,0,VALID,24.4911,VALID,38,VALID,0,
2008-12-29, 00:44:04,VALID,1007.53,VALID,0,VALID,93.6137,VALID,0,VALID,24.4911,VALID,38,VALID,0,
2008-12-29, 00:45:04,VALID,1007.51,VALID,0,VALID,93.5375,VALID,0,VALID,24.4717,VALID,38,VALID,0,
2008-12-29, 00:46:04,VALID,1007.52,VALID,0,VALID,93.4994,VALID,0.105969,VALID,24.4717,VALID,38,VALID,0.0191406,
2008-12-29, 00:47:04,VALID,1007.48,VALID,0,VALID,93.5146,VALID,0,VALID,24.454,VALID,38,VALID,0.335938,
2008-12-29, 00:48:04,VALID,1007.49,VALID,0,VALID,93.5222,VALID,0,VALID,24.4327,VALID,38,VALID,0.215234,
2008-12-29, 00:49:04,VALID,1007.46,VALID,0,VALID,93.5527,VALID,0,VALID,24.4132,VALID,38,VALID,0,
2008-12-29, 00:50:04,VALID,1007.45,VALID,0,VALID,93.5832,VALID,0,VALID,24.3742,VALID,38,VALID,0,
2008-12-29, 00:51:04,VALID,1007.42,VALID,0,VALID,93.6061,VALID,0.105969,VALID,24.3334,VALID,38,VALID,0,
2008-12-29, 00:52:04,VALID,1007.39,VALID,0,VALID,93.629,VALID,0,VALID,24.3761,VALID,23,VALID,0,
2008-12-29, 00:53:04,VALID,1007.39,VALID,0,VALID,93.6595,VALID,0.105969,VALID,24.3547,VALID,23,VALID,0,
2008-12-29, 00:54:04,VALID,1007.39,VALID,0,VALID,93.7053,VALID,0,VALID,24.3547,VALID,19,VALID,0,
2008-12-29, 00:55:04,VALID,1007.36,VALID,0,VALID,93.7129,VALID,0,VALID,24.3371,VALID,34,VALID,0.297266,
2008-12-29, 00:56:04,VALID,1007.36,VALID,0,VALID,93.7129,VALID,0.105969,VALID,24.2963,VALID,39,VALID,0.237109,
2008-12-29, 00:57:04,VALID,1007.39,VALID,0,VALID,93.7205,VALID,0.105969,VALID,24.2768,VALID,39,VALID,0.276172,
2008-12-29, 00:58:04,VALID,1007.4,VALID,0,VALID,93.7281,VALID,0.105969,VALID,24.2378,VALID,24,VALID,0.394141,
2008-12-29, 00:59:04,VALID,1007.39,VALID,0,VALID,93.7739,VALID,0.105969,VALID,24.2378,VALID,23,VALID,0,
2008-12-29, 01:00:04,VALID,1007.35,VALID,0,VALID,93.8196,VALID,0,VALID,24.2183,VALID,23,VALID,0,
2008-12-29, 01:01:04,VALID,1007.37,VALID,0,VALID,93.8502,VALID,0,VALID,24.2183,VALID,23,VALID,0,
2008-12-29, 01:02:04,VALID,1007.32,VALID,0,VALID,93.873,VALID,0,VALID,24.1988,VALID,23,VALID,0,
2008-12-29, 01:03:04,VALID,1007.34,VALID,0,VALID,93.8807,VALID,0,VALID,24.2007,VALID,23,VALID,0,
2008-12-29, 01:04:04,VALID,1007.34,VALID,0,VALID,93.9035,VALID,0,VALID,24.2007,VALID,23,VALID,0,
2008-12-29, 01:05:04,VALID,1007.31,VALID,0,VALID,93.9722,VALID,0.105969,VALID,24.1793,VALID,23,VALID,0,
2008-12-29, 01:06:04,VALID,1007.3,VALID,0,VALID,94.0103,VALID,0.105969,VALID,24.1988,VALID,23,VALID,0,
2008-12-29, 01:07:04,VALID,1007.28,VALID,0,VALID,94.056,VALID,0.105969,VALID,24.2396,VALID,23,VALID,0,
2008-12-29, 01:08:04,VALID,1007.26,VALID,0,VALID,94.0789,VALID,0.105969,VALID,24.2183,VALID,23,VALID,0,
2008-12-29, 01:09:04,VALID,1007.25,VALID,0,VALID,94.1247,VALID,0.105969,VALID,24.1988,VALID,23,VALID,0,
2008-12-29, 01:10:04,VALID,1007.24,VALID,0,VALID,94.1399,VALID,0.105969,VALID,24.1988,VALID,23,VALID,0,
2008-12-29, 01:11:04,VALID,1007.23,VALID,0,VALID,94.1704,VALID,0,VALID,24.2183,VALID,23,VALID,0,
2008-12-29, 01:12:04,VALID,1007.22,VALID,0,VALID,94.1476,VALID,0,VALID,24.1793,VALID,23,VALID,0,
2008-12-29, 01:13:04,VALID,1007.2,VALID,0,VALID,94.1781,VALID,0,VALID,24.1988,VALID,23,VALID,0,
2008-12-29, 01:14:04,VALID,1007.22,VALID,0,VALID,94.1704,VALID,0,VALID,24.1988,VALID,23,VALID,0,
2008-12-29, 01:15:04,VALID,1007.16,VALID,0,VALID,94.1933,VALID,0.105969,VALID,24.2007,VALID,23,VALID,0,
2008-12-29, 01:16:04,VALID,1007.17,VALID,0,VALID,94.1781,VALID,0,VALID,24.1599,VALID,23,VALID,0,
2008-12-29, 01:17:04,VALID,1007.16,VALID,0,VALID,94.1857,VALID,0.105969,VALID,24.1599,VALID,70,VALID,0.490625,
2008-12-29, 01:18:04,VALID,1007.14,VALID,0,VALID,94.2086,VALID,0.105969,VALID,24.1599,VALID,70,VALID,0.315625,
2008-12-29, 01:19:04,VALID,1007.12,VALID,0,VALID,94.2009,VALID,0.105969,VALID,24.1599,VALID,71,VALID,0.696875,
2008-12-29, 01:20:04,VALID,1007.12,VALID,0,VALID,94.2086,VALID,0.105969,VALID,24.1599,VALID,84,VALID,0.541797,
2008-12-29, 01:21:04,VALID,1007.07,VALID,0,VALID,94.1857,VALID,0,VALID,24.1599,VALID,84,VALID,0.566016,
2008-12-29, 01:22:04,VALID,1007.09,VALID,0,VALID,94.1933,VALID,0.105969,VALID,24.1812,VALID,84,VALID,0.571094,
2008-12-29, 01:23:04,VALID,1007.04,VALID,0,VALID,94.1781,VALID,0,VALID,24.1404,VALID,79,VALID,0.240625,
2008-12-29, 01:24:04,VALID,1007.03,VALID,0,VALID,94.1704,VALID,0.105969,VALID,24.1209,VALID,79,VALID,0,
2008-12-29, 01:25:04,VALID,1007.02,VALID,0,VALID,94.1781,VALID,0.105969,VALID,24.1209,VALID,79,VALID,0.00351562,
2008-12-29, 01:26:04,VALID,1007.01,VALID,0,VALID,94.1628,VALID,0.105969,VALID,24.1404,VALID,79,VALID,0.270703,
2008-12-29, 01:27:04,VALID,1007.01,VALID,0,VALID,94.1552,VALID,0.105969,VALID,24.1209,VALID,79,VALID,0.154297,
2008-12-29, 01:28:04,VALID,1006.99,VALID,0,VALID,94.1552,VALID,0.105969,VALID,24.1209,VALID,69,VALID,0.198047,
2008-12-29, 01:29:04,VALID,1006.96,VALID,0,VALID,94.1552,VALID,0.105969,VALID,24.1014,VALID,59,VALID,0.263281,
2008-12-29, 01:30:04,VALID,1006.96,VALID,0,VALID,94.1552,VALID,0.105969,VALID,24.1209,VALID,59,VALID,0.1625,
2008-12-29, 01:31:04,VALID,1006.93,VALID,0,VALID,94.1476,VALID,0.105969,VALID,24.0819,VALID,70,VALID,0.508594,
2008-12-29, 01:32:04,VALID,1006.94,VALID,0,VALID,94.1552,VALID,0.105969,VALID,24.1014,VALID,70,VALID,0.285937,
2008-12-29, 01:33:04,VALID,1006.99,VALID,0,VALID,94.1476,VALID,0.105969,VALID,24.1014,VALID,70,VALID,0.0183594,
2008-12-29, 01:34:04,VALID,1006.96,VALID,0,VALID,94.1704,VALID,0.105969,VALID,24.1227,VALID,69,VALID,0.132422,
2008-12-29, 01:35:04,VALID,1006.97,VALID,0,VALID,94.1781,VALID,0.105969,VALID,24.0819,VALID,69,VALID,0,
2008-12-29, 01:36:04,VALID,1006.94,VALID,0,VALID,94.1781,VALID,0.105969,VALID,24.0819,VALID,69,VALID,0,
2008-12-29, 01:37:04,VALID,1006.93,VALID,0,VALID,94.1781,VALID,0.105969,VALID,24.0624,VALID,69,VALID,0,
2008-12-29, 01:38:04,VALID,1006.95,VALID,0,VALID,94.1704,VALID,0.105969,VALID,24.0624,VALID,69,VALID,0,
2008-12-29, 01:39:04,VALID,1006.95,VALID,0,VALID,94.1628,VALID,0.105969,VALID,24.0624,VALID,69,VALID,0,
2008-12-29, 01:40:04,VALID,1006.93,VALID,0,VALID,94.1476,VALID,0.105969,VALID,24.0429,VALID,69,VALID,0,
2008-12-29, 01:41:04,VALID,1006.88,VALID,0,VALID,94.1628,VALID,0.105969,VALID,24.0235,VALID,69,VALID,0.328125,
2008-12-29, 01:42:04,VALID,1006.91,VALID,0,VALID,94.1552,VALID,0.105969,VALID,24.0643,VALID,69,VALID,0.107031,
2008-12-29, 01:43:04,VALID,1006.91,VALID,0,VALID,94.1552,VALID,0.105969,VALID,24.004,VALID,69,VALID,0,
2008-12-29, 01:44:04,VALID,1006.88,VALID,0,VALID,94.1628,VALID,0.105969,VALID,24.0235,VALID,69,VALID,0,
2008-12-29, 01:45:04,VALID,1006.84,VALID,0,VALID,94.1933,VALID,0.105969,VALID,24.0235,VALID,69,VALID,0,
2008-12-29, 01:46:05,VALID,1006.85,VALID,0,VALID,94.1781,VALID,0.105969,VALID,24.0235,VALID,69,VALID,0,
2008-12-29, 01:47:05,VALID,1006.84,VALID,0,VALID,94.2086,VALID,0.105969,VALID,24.004,VALID,69,VALID,0,
2008-12-29, 01:48:05,VALID,1006.81,VALID,0,VALID,94.2543,VALID,0.105969,VALID,24.0448,VALID,69,VALID,0,
2008-12-29, 01:49:05,VALID,1006.78,VALID,0,VALID,94.2467,VALID,0,VALID,24.004,VALID,69,VALID,0,
2008-12-29, 01:50:05,VALID,1006.79,VALID,0,VALID,94.2391,VALID,0.105969,VALID,24.004,VALID,69,VALID,0,
2008-12-29, 01:51:05,VALID,1006.78,VALID,0,VALID,94.2696,VALID,0.105969,VALID,23.9845,VALID,69,VALID,0.176563,
2008-12-29, 01:52:05,VALID,1006.77,VALID,0,VALID,94.2772,VALID,0.105969,VALID,23.9845,VALID,69,VALID,0.161328,
2008-12-29, 01:53:05,VALID,1006.75,VALID,0,VALID,94.2924,VALID,0.105969,VALID,23.965,VALID,69,VALID,0.276953,
2008-12-29, 01:54:05,VALID,1006.75,VALID,0,VALID,94.3153,VALID,0.105969,VALID,23.9845,VALID,69,VALID,0.15625,
2008-12-29, 01:55:05,VALID,1006.79,VALID,0,VALID,94.3153,VALID,0,VALID,24.0058,VALID,69,VALID,0,
2008-12-29, 01:56:05,VALID,1006.79,VALID,0,VALID,94.3306,VALID,0,VALID,23.9863,VALID,69,VALID,0,
2008-12-29, 01:57:05,VALID,1006.8,VALID,0,VALID,94.3382,VALID,0,VALID,23.9863,VALID,69,VALID,0,
2008-12-29, 01:58:05,VALID,1006.8,VALID,0,VALID,94.3763,VALID,0,VALID,24.0253,VALID,69,VALID,0.112891,
2008-12-29, 01:59:05,VALID,1006.77,VALID,0,VALID,94.3763,VALID,0,VALID,24.0253,VALID,69,VALID,0,
2008-12-29, 02:00:05,VALID,1006.77,VALID,0,VALID,94.3763,VALID,0,VALID,24.0058,VALID,69,VALID,0,
2008-12-29, 02:01:05,VALID,1006.76,VALID,0,VALID,94.3534,VALID,0,VALID,24.0058,VALID,69,VALID,0,
2008-12-29, 02:02:05,VALID,1006.8,VALID,0,VALID,94.3382,VALID,0,VALID,24.0058,VALID,69,VALID,0,
2008-12-29, 02:03:05,VALID,1006.8,VALID,0,VALID,94.3306,VALID,0,VALID,23.9863,VALID,69,VALID,0,
2008-12-29, 02:04:05,VALID,1006.82,VALID,0,VALID,94.3153,VALID,0,VALID,23.9863,VALID,69,VALID,0,
2008-12-29, 02:05:05,VALID,1006.84,VALID,0,VALID,94.3001,VALID,0,VALID,23.9863,VALID,69,VALID,0,
2008-12-29, 02:06:05,VALID,1006.81,VALID,0,VALID,94.2772,VALID,0,VALID,23.965,VALID,69,VALID,0,
2008-12-29, 02:07:05,VALID,1006.8,VALID,0,VALID,94.2696,VALID,0,VALID,23.9668,VALID,69,VALID,0,
2008-12-29, 02:08:05,VALID,1006.8,VALID,0,VALID,94.2848,VALID,0,VALID,23.9668,VALID,69,VALID,0,
2008-12-29, 02:09:05,VALID,1006.78,VALID,0,VALID,94.3001,VALID,0,VALID,23.9668,VALID,69,VALID,0.242969,
2008-12-29, 02:10:05,VALID,1006.8,VALID,0,VALID,94.2848,VALID,0,VALID,23.9278,VALID,69,VALID,0.195313,
2008-12-29, 02:11:05,VALID,1006.78,VALID,0,VALID,94.3153,VALID,0,VALID,23.9278,VALID,69,VALID,0,
2008-12-29, 02:12:05,VALID,1006.75,VALID,0,VALID,94.3458,VALID,0,VALID,23.9278,VALID,69,VALID,0,
2008-12-29, 02:13:05,VALID,1006.74,VALID,0,VALID,94.3839,VALID,0,VALID,23.9084,VALID,69,VALID,0,
2008-12-29, 02:14:05,VALID,1006.73,VALID,0,VALID,94.3611,VALID,0,VALID,23.9084,VALID,69,VALID,0,
2008-12-29, 02:15:05,VALID,1006.74,VALID,0,VALID,94.3839,VALID,0,VALID,23.8889,VALID,69,VALID,0,
2008-12-29, 02:16:05,VALID,1006.75,VALID,0,VALID,94.3992,VALID,0,VALID,23.9084,VALID,69,VALID,0,
2008-12-29, 02:17:05,VALID,1006.75,VALID,0,VALID,94.3992,VALID,0,VALID,23.8889,VALID,69,VALID,0,
2008-12-29, 02:18:05,VALID,1006.75,VALID,0,VALID,94.4068,VALID,0,VALID,23.8889,VALID,69,VALID,0,
2008-12-29, 02:19:05,VALID,1006.73,VALID,0,VALID,94.3763,VALID,0,VALID,23.8889,VALID,69,VALID,0,
2008-12-29, 02:20:05,VALID,1006.73,VALID,0,VALID,94.3992,VALID,0,VALID,23.8889,VALID,69,VALID,0,
2008-12-29, 02:21:05,VALID,1006.72,VALID,0,VALID,94.3763,VALID,0,VALID,23.8694,VALID,69,VALID,0,
2008-12-29, 02:22:05,VALID,1006.71,VALID,0,VALID,94.3916,VALID,0,VALID,23.8694,VALID,69,VALID,0,
2008-12-29, 02:23:05,VALID,1006.71,VALID,0,VALID,94.4221,VALID,0,VALID,23.8694,VALID,69,VALID,0,
2008-12-29, 02:24:05,VALID,1006.67,VALID,0,VALID,94.4068,VALID,0,VALID,23.8676,VALID,69,VALID,0,
2008-12-29, 02:25:05,VALID,1006.63,VALID,0,VALID,94.4297,VALID,0,VALID,23.8889,VALID,69,VALID,0,
2008-12-29, 02:26:05,VALID,1006.64,VALID,0,VALID,94.445,VALID,0,VALID,23.8889,VALID,69,VALID,0,
2008-12-29, 02:27:05,VALID,1006.64,VALID,0,VALID,94.4373,VALID,0,VALID,23.8889,VALID,69,VALID,0,
2008-12-29, 02:28:05,VALID,1006.63,VALID,0,VALID,94.4678,VALID,0,VALID,23.8889,VALID,69,VALID,0,
2008-12-29, 02:29:05,VALID,1006.66,VALID,0,VALID,94.4755,VALID,0,VALID,23.9084,VALID,69,VALID,0,
2008-12-29, 02:30:05,VALID,1006.62,VALID,0,VALID,94.4755,VALID,0,VALID,23.9084,VALID,61,VALID,0,
2008-12-29, 02:31:05,VALID,1006.58,VALID,0,VALID,94.4831,VALID,0,VALID,23.8889,VALID,61,VALID,0,
2008-12-29, 02:32:05,VALID,1006.61,VALID,0,VALID,94.4678,VALID,0.105969,VALID,23.8481,VALID,61,VALID,0,
2008-12-29, 02:33:05,VALID,1006.61,VALID,0,VALID,94.4526,VALID,0,VALID,23.8481,VALID,61,VALID,0,
2008-12-29, 02:34:05,VALID,1006.61,VALID,0,VALID,94.445,VALID,0,VALID,23.8499,VALID,61,VALID,0,
2008-12-29, 02:35:05,VALID,1006.6,VALID,0,VALID,94.4373,VALID,0,VALID,23.8499,VALID,61,VALID,0,
2008-12-29, 02:36:05,VALID,1006.59,VALID,0,VALID,94.445,VALID,0,VALID,23.8304,VALID,61,VALID,0,
2008-12-29, 02:37:05,VALID,1006.59,VALID,0,VALID,94.445,VALID,0,VALID,23.8304,VALID,61,VALID,0,
2008-12-29, 02:38:05,VALID,1006.56,VALID,0,VALID,94.4373,VALID,0,VALID,23.7896,VALID,61,VALID,0,
2008-12-29, 02:39:05,VALID,1006.57,VALID,0,VALID,94.4297,VALID,0,VALID,23.7914,VALID,61,VALID,0,
2008-12-29, 02:40:05,VALID,1006.57,VALID,0,VALID,94.4373,VALID,0,VALID,23.7914,VALID,61,VALID,0,
2008-12-29, 02:41:05,VALID,1006.56,VALID,0,VALID,94.3992,VALID,0,VALID,23.772,VALID,61,VALID,0,
2008-12-29, 02:42:05,VALID,1006.54,VALID,0,VALID,94.4145,VALID,0,VALID,23.772,VALID,61,VALID,0,
2008-12-29, 02:43:05,VALID,1006.55,VALID,0,VALID,94.445,VALID,0,VALID,23.7525,VALID,61,VALID,0,
2008-12-29, 02:44:05,VALID,1006.54,VALID,0,VALID,94.445,VALID,0,VALID,23.7525,VALID,61,VALID,0,
2008-12-29, 02:45:05,VALID,1006.59,VALID,0,VALID,94.4678,VALID,0,VALID,23.772,VALID,61,VALID,0,
2008-12-29, 02:46:05,VALID,1006.58,VALID,0,VALID,94.4678,VALID,0,VALID,23.7525,VALID,61,VALID,0,
2008-12-29, 02:47:05,VALID,1006.58,VALID,0,VALID,94.4907,VALID,0,VALID,23.772,VALID,61,VALID,0,
2008-12-29, 02:48:05,VALID,1006.56,VALID,0,VALID,94.5212,VALID,0,VALID,23.7914,VALID,61,VALID,0,
2008-12-29, 02:49:05,VALID,1006.58,VALID,0,VALID,94.5365,VALID,0,VALID,23.772,VALID,61,VALID,0,
2008-12-29, 02:50:05,VALID,1006.58,VALID,0,VALID,94.5746,VALID,0,VALID,23.772,VALID,61,VALID,0,
2008-12-29, 02:51:05,VALID,1006.61,VALID,0,VALID,94.5822,VALID,0,VALID,23.7701,VALID,61,VALID,0,
2008-12-29, 02:52:05,VALID,1006.59,VALID,0,VALID,94.5975,VALID,0,VALID,23.7914,VALID,61,VALID,0,
2008-12-29, 02:53:05,VALID,1006.58,VALID,0,VALID,94.6127,VALID,0,VALID,23.8109,VALID,61,VALID,0,
2008-12-29, 02:54:05,VALID,1006.59,VALID,0,VALID,94.6432,VALID,0,VALID,23.7507,VALID,61,VALID,0,
2008-12-29, 02:55:05,VALID,1006.55,VALID,0,VALID,94.6585,VALID,0,VALID,23.7914,VALID,61,VALID,0,
2008-12-29, 02:56:05,VALID,1006.53,VALID,0,VALID,94.6737,VALID,0,VALID,23.7914,VALID,61,VALID,0,
2008-12-29, 02:57:05,VALID,1006.52,VALID,0,VALID,94.6814,VALID,0,VALID,23.7896,VALID,61,VALID,0,
2008-12-29, 02:58:05,VALID,1006.54,VALID,0,VALID,94.6814,VALID,0,VALID,23.8322,VALID,61,VALID,0,
2008-12-29, 02:59:05,VALID,1006.54,VALID,0,VALID,94.6966,VALID,0,VALID,23.8109,VALID,61,VALID,0,
2008-12-29, 03:00:05,VALID,1006.57,VALID,0,VALID,94.7119,VALID,0,VALID,23.8091,VALID,61,VALID,0,
2008-12-29, 03:01:05,VALID,1006.56,VALID,0,VALID,94.7271,VALID,0,VALID,23.8091,VALID,61,VALID,0,
2008-12-29, 03:02:05,VALID,1006.57,VALID,0,VALID,94.7271,VALID,0,VALID,23.8304,VALID,61,VALID,0,
2008-12-29, 03:03:05,VALID,1006.56,VALID,0,VALID,94.7271,VALID,0,VALID,23.8304,VALID,61,VALID,0,
2008-12-29, 03:04:05,VALID,1006.54,VALID,0,VALID,94.7424,VALID,0,VALID,23.8304,VALID,61,VALID,0,
2008-12-29, 03:05:05,VALID,1006.56,VALID,0,VALID,94.7271,VALID,0,VALID,23.8712,VALID,61,VALID,0,
2008-12-29, 03:06:05,VALID,1006.56,VALID,0,VALID,94.7424,VALID,0,VALID,23.8694,VALID,61,VALID,0,
2008-12-29, 03:07:05,VALID,1006.57,VALID,0,VALID,94.7424,VALID,0,VALID,23.8694,VALID,61,VALID,0,
2008-12-29, 03:08:05,VALID,1006.56,VALID,0,VALID,94.7424,VALID,0,VALID,23.8499,VALID,61,VALID,0,
2008-12-29, 03:09:05,VALID,1006.55,VALID,0,VALID,94.7576,VALID,0,VALID,23.8694,VALID,61,VALID,0,
2008-12-29, 03:10:05,VALID,1006.56,VALID,0,VALID,94.7347,VALID,0,VALID,23.8676,VALID,61,VALID,0,
2008-12-29, 03:11:05,VALID,1006.53,VALID,0,VALID,94.7271,VALID,0,VALID,23.8694,VALID,61,VALID,0,
2008-12-29, 03:12:05,VALID,1006.55,VALID,0,VALID,94.7195,VALID,0,VALID,23.8694,VALID,61,VALID,0,
2008-12-29, 03:13:05,VALID,1006.55,VALID,0,VALID,94.6737,VALID,0.105969,VALID,23.8286,VALID,61,VALID,0,
2008-12-29, 03:14:05,VALID,1006.55,VALID,0,VALID,94.6661,VALID,0,VALID,23.8286,VALID,61,VALID,0,
2008-12-29, 03:15:05,VALID,1006.54,VALID,0,VALID,94.6737,VALID,0.105969,VALID,23.8304,VALID,61,VALID,0,
2008-12-29, 03:16:05,VALID,1006.52,VALID,0,VALID,94.6508,VALID,0.105969,VALID,23.8091,VALID,61,VALID,0,
2008-12-29, 03:17:05,VALID,1006.54,VALID,0,VALID,94.6432,VALID,0.105969,VALID,23.8091,VALID,61,VALID,0,
2008-12-29, 03:18:05,VALID,1006.55,VALID,0,VALID,94.628,VALID,0.105969,VALID,23.7896,VALID,61,VALID,0,
2008-12-29, 03:19:05,VALID,1006.57,VALID,0,VALID,94.628,VALID,0.105969,VALID,23.8091,VALID,61,VALID,0,
2008-12-29, 03:20:05,VALID,1006.57,VALID,0,VALID,94.6356,VALID,0.105969,VALID,23.7896,VALID,61,VALID,0,
2008-12-29, 03:21:05,VALID,1006.57,VALID,0,VALID,94.6508,VALID,0.105969,VALID,23.7896,VALID,61,VALID,0,
2008-12-29, 03:22:05,VALID,1006.58,VALID,0,VALID,94.6508,VALID,0.105969,VALID,23.8091,VALID,61,VALID,0,
2008-12-29, 03:23:05,VALID,1006.6,VALID,0,VALID,94.6432,VALID,0.105969,VALID,23.8091,VALID,61,VALID,0,
2008-12-29, 03:24:05,VALID,1006.6,VALID,0,VALID,94.6661,VALID,0.105969,VALID,23.7701,VALID,61,VALID,0,
2008-12-29, 03:25:05,VALID,1006.55,VALID,0,VALID,94.6432,VALID,0,VALID,23.7932,VALID,61,VALID,0,
2008-12-29, 03:26:05,VALID,1006.59,VALID,0,VALID,94.6585,VALID,0,VALID,23.7914,VALID,61,VALID,0,
2008-12-29, 03:27:05,VALID,1006.61,VALID,0,VALID,94.6661,VALID,0,VALID,23.772,VALID,61,VALID,0,
2008-12-29, 03:28:05,VALID,1006.61,VALID,0,VALID,94.6508,VALID,0,VALID,23.772,VALID,61,VALID,0,
2008-12-29, 03:29:05,VALID,1006.61,VALID,0,VALID,94.6737,VALID,0,VALID,23.772,VALID,61,VALID,0,
2008-12-29, 03:30:05,VALID,1006.6,VALID,0,VALID,94.6814,VALID,0,VALID,23.7525,VALID,61,VALID,0,
2008-12-29, 03:31:05,VALID,1006.61,VALID,0,VALID,94.6661,VALID,0,VALID,23.7525,VALID,61,VALID,0,
2008-12-29, 03:32:05,VALID,1006.64,VALID,0,VALID,94.6585,VALID,0,VALID,23.772,VALID,61,VALID,0,
2008-12-29, 03:33:05,VALID,1006.59,VALID,0,VALID,94.6508,VALID,0,VALID,23.7525,VALID,61,VALID,0,
2008-12-29, 03:34:05,VALID,1006.55,VALID,0,VALID,94.6432,VALID,0,VALID,23.7525,VALID,61,VALID,0,
2008-12-29, 03:35:05,VALID,1006.55,VALID,0,VALID,94.6203,VALID,0,VALID,23.733,VALID,61,VALID,0,
2008-12-29, 03:36:05,VALID,1006.56,VALID,0,VALID,94.6203,VALID,0,VALID,23.7135,VALID,61,VALID,0,
2008-12-29, 03:37:05,VALID,1006.56,VALID,0,VALID,94.628,VALID,0,VALID,23.7153,VALID,61,VALID,0,
2008-12-29, 03:38:05,VALID,1006.58,VALID,0,VALID,94.628,VALID,0,VALID,23.694,VALID,61,VALID,0,
2008-12-29, 03:39:05,VALID,1006.56,VALID,0,VALID,94.6356,VALID,0,VALID,23.7135,VALID,61,VALID,0,
2008-12-29, 03:40:05,VALID,1006.59,VALID,0,VALID,94.6432,VALID,0,VALID,23.7135,VALID,61,VALID,0,
2008-12-29, 03:41:05,VALID,1006.59,VALID,0,VALID,94.6814,VALID,0,VALID,23.6922,VALID,61,VALID,0,
2008-12-29, 03:42:05,VALID,1006.6,VALID,0,VALID,94.6966,VALID,0,VALID,23.733,VALID,61,VALID,0,
2008-12-29, 03:43:05,VALID,1006.62,VALID,0,VALID,94.7195,VALID,0,VALID,23.7135,VALID,61,VALID,0,
2008-12-29, 03:44:05,VALID,1006.56,VALID,0,VALID,94.7195,VALID,0,VALID,23.733,VALID,61,VALID,0,
2008-12-29, 03:45:05,VALID,1006.55,VALID,0,VALID,94.7119,VALID,0,VALID,23.733,VALID,61,VALID,0,
2008-12-29, 03:46:05,VALID,1006.53,VALID,0,VALID,94.7271,VALID,0,VALID,23.733,VALID,61,VALID,0,
2008-12-29, 03:47:05,VALID,1006.56,VALID,0,VALID,94.75,VALID,0,VALID,23.7135,VALID,61,VALID,0,
2008-12-29, 03:48:05,VALID,1006.58,VALID,0,VALID,94.75,VALID,0,VALID,23.733,VALID,61,VALID,0,
2008-12-29, 03:49:05,VALID,1006.6,VALID,0,VALID,94.7652,VALID,0,VALID,23.7135,VALID,61,VALID,0,
2008-12-29, 03:50:05,VALID,1006.57,VALID,0,VALID,94.75,VALID,0,VALID,23.7135,VALID,61,VALID,0,
2008-12-29, 03:51:05,VALID,1006.56,VALID,0,VALID,94.7729,VALID,0,VALID,23.694,VALID,61,VALID,0,
2008-12-29, 03:52:05,VALID,1006.55,VALID,0,VALID,94.7729,VALID,0,VALID,23.7135,VALID,61,VALID,0,
2008-12-29, 03:53:05,VALID,1006.56,VALID,0,VALID,94.7576,VALID,0,VALID,23.7135,VALID,61,VALID,0,